Regional Weather Roundup
Issued by NWS

Home | Current Version | Previous Version | Graphics & Text | Print | Product List | Glossary Off
Versions: 1 2 3 4 5 6 7 8 9 10 11 12 13 14 15 16 17 18 19 20 21 22 23 24 25 26 27 28 29 30 31 32 33 34 35 36 37 38 39 40 41 42 43 44 45 46 47 48 49 50

000
ASUS45 KBOU 281307
RWRCO

WEATHER ROUNDUP FOR COLORADO
NATIONAL WEATHER SERVICE DENVER/BOULDER CO
700 AM MDT FRI AUG 28 2015

NOTE: "FAIR" INDICATES FEW OR NO CLOUDS BELOW 12000 FEET WITH NO
SIGNIFICANT WEATHER AND/OR OBSTRUCTIONS TO VISIBILITY.

COZ001>005-013-030-031-281400-
...NORTHWEST COLORADO...

CITY           SKY/WX    TMP DP  RH WIND       PRES   REMARKS
CRAIG          CLEAR     47  44  90 CALM      30.36R
HAYDEN         NOT AVBL
MEEKER         CLEAR     48  45  89 CALM      30.37R
MOUNT WERNER   NOT AVBL
STEAMBOAT SPGS   N/A     42  42  99 CALM      30.40R VSB 3/4
WALDEN         PTCLDY    43  39  87 CALM      30.44R
$$

COZ006>008-011-281400-
...WEST CENTRAL VALLEYS...

CITY           SKY/WX    TMP DP  RH WIND       PRES   REMARKS
GRAND JUNCTION CLEAR     56  53  90 E3        30.26R
MONTROSE       CLEAR     52  49  89 S6        30.33R
EAGLE          CLEAR     46  46 100 E3        30.42R
RIFLE          CLEAR     51  49  92 NE3       30.33R
DELTA          RAIN      56  51  84 NE6       30.30R
NUCLA          CLEAR     54  46  76 SE7       30.34S
$$

COZ017>023-064>068-281400-
...SOUTHWEST COLORADO...

CITY           SKY/WX    TMP DP  RH WIND       PRES   REMARKS
DURANGO        CLEAR     51  46  83 CALM      30.30R
CORTEZ         CLEAR     52  48  86 N5        30.27R
PAGOSA SPRINGS CLEAR     48  46  92 CALM      30.38R
TELLURIDE      PTCLDY    46  43  87 CALM      30.51R
WOLF CREEK PAS CLEAR     41  34  75 NE15      30.66S
$$

COZ009-010-012-014-032>034-037-058>063-281400-
...CENTRAL COLORADO...

CITY           SKY/WX    TMP DP  RH WIND       PRES   REMARKS
ASPEN          CLEAR     44  41  89 SW6       30.43R
BUENA VISTA    CLEAR     49  40  71 NE5       30.42R
COPPER MTN     CLOUDY    45  37  76 W10       30.66R
BERTHOUD PASS  HAZE      34  23  64 NW22G30   30.66S VSB<1/4 WCI  22
COTTONWOOD PAS CLEAR     52  34  50 W7        30.51S
GUNNISON       PTCLDY    45  39  81 N7        30.46R
KREMMLING      MOCLDY    41  39  93 CALM      30.45R FOG
LEADVILLE      CLEAR     37  37 100 CALM      30.53R
MONARCH PASS   PTCLDY    41  32  70 W9        30.74S
SALIDA         CLEAR     47  42  83 CALM      30.47R
SUNLIGHT       CLEAR     50  37  62 CALM      30.62R
WILKERSON PASS PTCLDY    45  34  65 NW9       30.61S
$$

COZ069>075-281400-
...SAN LUIS VALLEY/SANGRE DE CRISTO MOUNTAINS...

CITY           SKY/WX    TMP DP  RH WIND       PRES   REMARKS
ALAMOSA        PTCLDY    44  42  93 CALM      30.37S
LA VETA PASS   NOT AVBL
SAGUACHE       PTCLDY    54  41  62 N13       30.39F
$$

COZ035-036-038>040-281400-
...NORTHERN COLORADO FRONT RANGE...

CITY           SKY/WX    TMP DP  RH WIND       PRES   REMARKS
DENVER INTL AP PTCLDY    59  53  80 SW6       30.21R
DMNS CITY PARK   N/A     60  52  75 SE7       30.21R
AURORA         PTCLDY    57  55  91 S6        30.23R
FRONT RANGE AP PTCLDY    57  54  88 SW5       30.22R
ERIE MUNI ARPT CLEAR     56  52  87 CALM      30.20R
BOULDER MUN AP CLEAR     63  45  51 SW5       30.20R
CENTENNIAL     PTCLDY    56  52  86 S6        30.24R
BROOMFIELD     PTCLDY    59  50  72 W5        30.23R
FORT COLLINS   CLEAR     59  50  72 S6        30.20R
LONGMONT       PTCLDY    57  51  82 CALM      30.21R
$$

COZ041-046-047-076>085-087-088-281400-
...PIKES PEAK/PALMER DIVIDE AND SOUTHERN FOOTHILLS...

CITY           SKY/WX    TMP DP  RH WIND       PRES   REMARKS
COLO. SPRINGS  PTCLDY    62  50  64 NW15      30.25R
A. F. ACADEMY  CLEAR     53  49  86 N6        30.27R
ELLICOTT       CLEAR    N/A N/A N/A N5        30.24R
FALCON         CLEAR     58  52  80 MISG      30.29S
FORT CARSON    CLEAR     59  49  69 NW9       30.22R
LIMON          CLEAR     57  54  89 W10       30.20R
MONUMENT HILL  CLEAR     52  48  87 W6        30.31S
TRINIDAD       CLEAR     57  53  86 W9        30.23R
$$

COZ042>045-048>051-090-091-281400-
...NORTHEAST COLORADO...

CITY           SKY/WX    TMP DP  RH WIND       PRES   REMARKS
GREELEY ARPT   MOCLDY    61  50  67 CALM      30.18R
AKRON          PTCLDY    59  57  93 W10       30.14R
BURLINGTON     CLEAR     59  54  83 W8        30.10R
WRAY           CLEAR     60  57  91 W6        30.05S
STERLING       MOCLDY    59  54  82 SW3       30.10R
HOLYOKE        CLEAR     64  54  68 NW15      30.05R
FORT MORGAN    MOCLDY    61  52  72 W7        30.15R
$$

COZ086-089-092>099-281400-
...SOUTHEAST COLORADO...

CITY           SKY/WX    TMP DP  RH WIND       PRES   REMARKS
PUEBLO         CLEAR     60  53  77 VRB7      30.16R
LA JUNTA       CLEAR     61  57  87 SW7       30.13R
LAMAR          CLEAR     60  59  96 SW6       30.08R
SPRINGFIELD      N/A     61  57  87 NW9       30.12R
$$



USA.gov is the U.S. government's official web portal to all federal, state and local government web resources and services.